Location: Walnut Point State Park
(39.6958°N, 88.0345°W)
Time: 17:13:26
(UTC-06:00)

Cosmos 1833 Rocket - Visible Passes

Search period start: 25 November 2014 00:00
Search period end: 05 December 2014 00:00
Orbit: 831 x 842 km, 71.0° (Epoch: 25 November)

Date Brightness Start Highest point End Pass type
(mag) Time Alt. Az. Time Alt. Az. Time Alt. Az.
25 Nov 5.0 03:29:58 15° SE 03:29:58 15° SE 03:30:47 10° SSE visible
25 Nov 4.8 05:11:45 10° SW 05:11:45 10° SW 05:11:47 10° SW visible
25 Nov 3.3 18:08:53 10° SW 18:14:22 54° WNW 18:19:54 10° NNE visible
26 Nov 3.2 17:52:13 10° SW 17:57:45 59° WNW 18:03:20 10° NNE visible
27 Nov 3.1 17:35:34 10° SSW 17:41:08 64° WNW 17:46:45 10° NNE visible
27 Nov 5.5 19:25:21 10° NW 19:26:14 10° NW 19:27:07 10° NW visible
28 Nov 3.0 17:18:55 10° SSW 17:24:31 70° WNW 17:30:09 10° NNE visible
28 Nov 5.4 19:07:52 10° WNW 19:09:32 11° NW 19:11:12 10° NNW visible
29 Nov 2.9 17:02:18 10° SSW 17:07:54 75° WNW 17:13:34 10° NNE visible
29 Nov 5.3 18:50:39 10° WNW 18:52:50 12° NW 18:55:01 10° NNW visible
30 Nov 5.2 18:33:34 10° WNW 18:36:08 13° NW 18:38:44 10° NNW visible
01 Dec 5.2 18:16:32 10° W 18:19:27 14° NW 18:22:23 10° NNW visible
02 Dec 5.1 17:59:33 10° W 18:02:46 15° NW 18:05:59 10° NNW visible
03 Dec 5.1 17:42:37 10° W 17:46:05 16° NW 17:49:34 10° NNW visible
04 Dec 5.0 17:25:42 10° W 17:29:24 18° NW 17:33:08 10° N visible
